{"data":{"norad_id":36287,"intl_designator":"2010-001A","name":"BEIDOU-2 G1","alt_names":[],"object_type":"PAYLOAD","status":"ACTIVE","operator":null,"country":"PRC","launch_date":"2010-01-16","launch_site_code":"XICLF","launch_vehicle":null,"mission":null,"orbit_class":"UNKNOWN","rcs_meters":79.4328,"size_class":null,"mass_kg":null,"dimensions":null,"purposes":["comms"],"wikipedia_slug":null,"has_3d_model":false,"image_url":null,"decayed_at":null,"tle_current":{"epoch":"2026-05-24T16:25:55.524288Z","epoch_age_seconds":116494,"freshness":"FRESH","line1":"1 36287U 10001A   26144.68467042 -.00000283  00000+0  00000+0 0  9994","line2":"2 36287   4.2409  60.4832 0003081 298.0651 270.6678  1.00272436 59930","mean_motion":1.00272436,"eccentricity":0.0003081,"inclination_deg":4.2409,"raan_deg":60.4832,"arg_perigee_deg":298.0651,"mean_anomaly_deg":270.6678,"bstar":0,"rev_number":5993,"period_min":1436.0875804394,"perigee_km":35773.421565556,"apogee_km":35799.403360936,"semimajor_km":42164.549463246,"source":"CELESTRAK","updated_at":"2026-05-25T13:38:13.869650Z"}}}